Regional Weather Roundup
Issued by NWS

Home | Current Version | Previous Version | Text Only | Print | Product List | Glossary Off
Versions: 1 2 3 4 5 6 7 8 9 10 11 12 13 14 15 16 17 18 19 20 21 22 23 24 25 26 27 28 29 30 31 32 33 34 35 36 37 38 39 40 41 42 43 44 45 46 47 48 49 50

000
ASUS43 KLOT 302203
RWRIL

ILLINOIS REGIONAL WEATHER ROUNDUP
NATIONAL WEATHER SERVICE CHICAGO/ROMEOVILLE IL
500 PM CDT SAT APR 30 2016

NOTE: "FAIR" INDICATES FEW OR NO CLOUDS BELOW 12,000 FEET WITH NO
SIGNIFICANT WEATHER AND/OR OBSTRUCTIONS TO VISIBILITY.

* THESE STATIONS ARE NOT UNDER NWS QUALITY CONTROL. THEY ALSO MAY NOT
  REPORT WEATHER SUCH AS PRECIPITATION OR FOG.

ILZ001-002-007-009-015-016-024-302300-
NORTHWEST ILLINOIS

CITY           SKY/WX    TMP DP  RH WIND       PRES   REMARKS
MOLINE         LGT RAIN  49  45  86 E20       29.83R FOG
STERLING*      CLOUDY    46  45  93 NE15G22   29.87R
$$

ILZ003-004-008-010-011-017-018-302300-
NORTH CENTRAL ILLINOIS

CITY           SKY/WX    TMP DP  RH WIND       PRES   REMARKS
ROCKFORD       RAIN      45  42  89 NE17G26   29.94R FOG
FREEPORT*      RAIN      44  42  95 NE24G31   29.91S
DE KALB*       RAIN      44  43  96 NE18G30   29.90R
$$

ILZ005-006-012>014-019>023-302300-
NORTHEAST ILLINOIS

CITY           SKY/WX    TMP DP  RH WIND       PRES   REMARKS
CHICAGO-OHARE  LGT RAIN  44  42  93 NE20      29.91F FOG
CHICAGO-MIDWAY LGT RAIN  47  43  86 NE21      29.90F FOG
AURORA         RAIN      47  44  90 NE23G30   29.87F FOG
LANSING*       RAIN      48  46  95 NE12      29.88F
WAUKEGAN       LGT RAIN  43  42  97 NE15G30   29.96F
DUPAGE AIRPORT RAIN      45  42  89 NE18G28   29.89F FOG
WHEELING       LGT RAIN  44  42  93 NE17G24   29.95F FOG
NORTHERLY ISL    N/A     44  42  93 NE20        N/A
NORTHERLY ISL    N/A     44  42  93 NE20        N/A
$$

LMZ740>746-302300-
SOUTHERN LAKE MICHIGAN

STATION/POSITION SKY/WX   TEMP    WIND        PRES    VSBY  WAVE
                          AIR SEA DIR/SP/G                  HT/PER
                          (F)     (DEG/KT/KT) (MB)    (MI)  (FT/S)
SOUTHERN BUOY              43 40   70/ 14/ 16 1015.5          1/ 3
HARRISON CRIB              44      60/ 19/ 23   N/A
BURNHAM HARBOR             44      30/ 14/ 19   N/A
CALUMET HARBOR             45      50/ 14/ 18 1012.6F
BURNS HARBOR               48      80/ 10/ 15 1013.5F
MICHIGAN CITY              48      60/ 12/ 16   N/A
ST. JOSEPH                 48 47                N/A           2/ 3
$$

ILZ025>027-034>036-040-047-049-050-058-095>099-302300-
WEST-CENTRAL ILLINOIS

CITY           SKY/WX    TMP DP  RH WIND       PRES   REMARKS
QUINCY         LGT RAIN  68  61  78 NE5       29.71S
MACOMB*        CLOUDY    58  58  99 E8        29.78S FOG
$$

ILZ028>032-037-038-041>044-048-051>054-059>061-302300-
CENTRAL ILLINOIS

CITY           SKY/WX    TMP DP  RH WIND       PRES   REMARKS
BLOOMINGTON    LGT RAIN  58  58 100 SE10      29.79S VSB 1
DECATUR        CLOUDY    63  60  90 S9        29.78S
PEORIA         LGT RAIN  55  54  96 E14       29.78S FOG
SPRINGFIELD    CLOUDY    68  65  90 S12       29.75S
TAYLORVILLE    NOT AVBL
$$

ILZ033-039-045-046-055>057-062-063-302300-
EAST-CENTRAL ILLINOIS

CITY           SKY/WX    TMP DP  RH WIND       PRES   REMARKS
CHAMPAIGN      CLOUDY    60  60 100 SE13      29.79F FOG
MATTOON        CLOUDY    63  60  90 S6        29.78F
$$

ILZ079-100>102-302300-
SOUTHWEST ILLINOIS

CITY           SKY/WX    TMP DP  RH WIND       PRES   REMARKS
BELLEVILLE     CLOUDY    73  65  76 S9        29.74S
CAHOKIA*       MOSUNNY   75  62  64 S9        29.73F
SPARTA*        CLOUDY    73  62  69 SW6       29.77S
$$

ILZ064>066-069>071-074>076-080>082-084>086-088>090-092>094-302300-
SOUTH-CENTRAL ILLINOIS

CITY           SKY/WX    TMP DP  RH WIND       PRES   REMARKS
CARBONDALE     CLOUDY    73  61  65 S12       29.77S
MARION         PTSUNNY   73  64  73 S12       29.79S
MT. VERNON     CLOUDY    72  61  68 S9        29.80R
SALEM*         CLOUDY    72  63  74 S8        29.78R
$$

ILZ067-068-072-073-078-083-087-091-302300-
SOUTHEAST ILLINOIS

CITY           SKY/WX    TMP DP  RH WIND       PRES   REMARKS
LAWRENCEVILLE  CLOUDY    67  64  90 S15       29.82R
FLORA*         CLOUDY    70  65  82 S7        29.80R
HARRISBURG*    PTSUNNY   71  64  78 S9        29.80S
ROBINSON*      CLOUDY    66  63  90 S9        29.82S
$$

ABBREVIATIONS USED IN REMARKS
   TC - TEMPERATURE IN CELSIUS
  WCI - WIND CHILL INDEX
   HX - HEAT INDEX
  VSB - VISIBILITY
$$




USA.gov is the U.S. government's official web portal to all federal, state and local government web resources and services.